[[{"header":{"parameterUnit":"m.s-1","parameterCategory":2,"la1":30.2991,"la2":30.254,"lo1":-89.0895,"lo2":-89.0444,"dy":0.0017,"dx":0.0017,"nx":28,"ny":28,"refTime":"2025-12-04T09:00:00:Z","depth":"0","parameterNumber":2,"parameterNumberName":"U-component_of_CURRENTS"},"data":[0,0,0,0,0,0,0,0,0,0,0,0,0,0,0,0,0,0,0,0,0,0,0,0,0,0,0,0,0,0,0,0,0,0,0,0,0,0,0,0,0,0,0,0,0,0,0,0,0,0,0,0,0,0,0,0,0,0,-0.2339,-0.234,0,-0.2373,-0.2374,-0.2374,-0.2356,-0.2356,-0.2355,-0.2354,-0.2323,-0.2323,-0.2322,0,0,0,0,0,0,0,0,0,0,0,0,0,-0.2246,-0.2248,-0.2339,-0.234,-0.2341,-0.2373,-0.2374,-0.2374,-0.2356,-0.2355,-0.2355,-0.2354,-0.2323,-0.2323,-0.2322,0,0,0,0,0,0,0,0,0,0,0,0,0,-0.2281,-0.2248,-0.2339,-0.2338,-0.2338,-0.2373,-0.2374,-0.2374,-0.2356,-0.2355,-0.2354,-0.2354,-0.2323,-0.2323,-0.2322,-0.2339,0,0,-0.2321,-0.2321,0,0,0,0,0,0,0,0,-0.2279,-0.2284,-0.2337,-0.2338,-0.2339,-0.2362,-0.2329,-0.236,-0.2357,-0.2346,-0.2354,-0.2353,-0.2333,-0.2331,-0.2337,-0.2338,-0.2337,-0.2321,-0.2321,-0.2321,-0.2321,0,0,0,0,0,0,0,-0.2277,-0.2283,-0.235,-0.2338,-0.2339,-0.2332,-0.2335,-0.2335,-0.2341,-0.2347,-0.2347,-0.2356,-0.2332,-0.2337,-0.2336,-0.2336,-0.2321,-0.2321,-0.2321,-0.2321,-0.236,-0.2361,0,0,0,0,0,0,-0.2281,-0.2281,-0.2349,-0.2351,-0.2309,-0.2334,-0.2338,-0.2353,-0.2342,-0.2341,-0.2356,-0.2355,-0.2338,-0.2336,-0.2334,-0.2363,-0.2321,-0.2321,-0.232,-0.2359,-0.236,-0.2362,0,0,0,0,0,0,-0.2279,-0.2287,-0.2347,-0.2318,-0.2326,-0.2337,-0.2354,-0.2354,-0.2358,-0.2351,-0.2347,-0.236,-0.2337,-0.2335,-0.2341,-0.2361,-0.232,-0.232,-0.2357,-0.2359,-0.2361,-0.2415,0,0,0,0,0,0,-0.2276,-0.2286,-0.2292,-0.2319,-0.2328,-0.2371,-0.2355,-0.2356,-0.2367,-0.2365,-0.2353,-0.2349,-0.2336,-0.2342,-0.2341,-0.236,-0.232,-0.2356,-0.2358,-0.2361,-0.2412,-0.2419,-0.2424,0,0,0,0,0,-0.2272,-0.2288,-0.2292,-0.23,-0.2338,-0.2372,-0.2376,-0.2378,-0.2368,-0.2376,-0.237,-0.2349,-0.2356,-0.2343,-0.2341,-0.2361,-0.2355,-0.2358,-0.236,-0.2409,-0.2417,-0.2424,0,0,0,0,0,0,-0.2248,-0.2289,-0.2294,-0.232,-0.2345,-0.237,-0.2376,-0.2382,-0.2385,-0.2378,-0.2364,-0.2361,-0.2375,-0.2363,-0.2349,-0.2381,-0.2353,-0.2355,-0.239,-0.2398,-0.2404,-0.2408,-0.2319,0,0,0,0,0,-0.2248,-0.2268,-0.2307,-0.2324,-0.2339,-0.2358,-0.2369,-0.2377,-0.2388,-0.2388,-0.2383,-0.238,-0.2388,-0.2388,-0.2389,-0.2405,-0.2397,-0.2418,-0.2424,-0.243,-0.2433,-0.2445,-0.2452,-0.2371,-0.2371,-0.2371,0,0,-0.2241,-0.2267,-0.2276,-0.232,-0.2335,-0.2371,-0.2361,-0.2385,-0.2413,-0.2385,-0.2407,-0.24,-0.2398,-0.2418,-0.2423,-0.2409,-0.245,-0.2433,-0.2438,-0.2438,-0.2448,-0.2456,-0.2463,-0.2373,-0.2373,-0.2372,0,0,-0.2244,-0.2263,-0.2284,-0.2315,-0.2352,-0.2373,-0.2383,-0.2414,-0.2423,-0.2449,-0.2439,-0.2449,-0.2452,-0.2463,-0.2467,-0.2511,-0.2484,-0.2507,-0.2542,-0.2553,-0.256,-0.2566,-0.257,-0.2575,-0.251,-0.251,-0.251,0,-0.2233,-0.2272,-0.2294,-0.2331,-0.2359,-0.2378,-0.2415,-0.2437,-0.2464,-0.2479,-0.2459,-0.2487,-0.248,-0.252,-0.2531,-0.2527,-0.252,-0.2512,-0.2561,-0.2567,-0.2572,-0.2574,-0.258,-0.2513,-0.2513,-0.2513,-0.2512,0,-0.2259,-0.2295,-0.2311,-0.2367,-0.24,-0.2433,-0.2477,-0.2502,-0.251,-0.2531,-0.2562,-0.2558,-0.2572,-0.2577,-0.2564,-0.2602,-0.2583,-0.2568,-0.254,-0.2583,-0.2583,-0.2588,-0.2517,-0.2516,-0.2515,-0.2515,0,0,-0.2222,-0.2313,-0.2317,-0.2356,-0.2425,-0.2455,-0.2509,-0.2564,-0.2597,-0.2613,-0.2652,-0.2666,-0.2654,-0.2658,-0.2649,-0.2659,-0.2686,-0.2625,-0.2624,-0.2626,-0.2704,-0.2673,-0.2674,-0.2673,-0.2674,-0.2675,-0.2691,0,-0.2235,-0.2308,-0.2353,-0.2424,-0.2468,-0.2517,-0.2567,-0.2617,-0.2646,-0.2686,-0.2696,-0.272,-0.269,-0.2691,-0.2701,-0.2689,-0.27,-0.2683,-0.2664,-0.2664,-0.2629,-0.268,-0.2624,-0.2632,-0.2696,-0.2696,-0.2697,0,-0.2243,-0.2296,-0.2367,-0.2466,-0.2488,-0.2528,-0.2609,-0.2659,-0.2724,-0.2745,-0.2773,-0.2776,-0.2801,-0.2762,-0.277,-0.2756,-0.2734,-0.2722,-0.2722,-0.2676,-0.2642,-0.2599,-0.2637,-0.2635,-0.2704,-0.2703,-0.2703,0,-0.2203,-0.2304,-0.236,-0.2394,-0.2505,-0.2537,-0.2587,-0.2663,-0.2707,-0.2774,-0.28,-0.2833,-0.2837,-0.2829,-0.2799,-0.2783,-0.2801,-0.2777,-0.2735,-0.2732,-0.2673,-0.2663,-0.2703,-0.2787,-0.2787,-0.2787,-0.2787,0,-0.2202,-0.2246,-0.2341,-0.2373,-0.2432,-0.2515,-0.2575,-0.2633,-0.2713,-0.2761,-0.2811,-0.2841,-0.285,-0.2858,-0.2829,-0.2797,-0.2824,-0.2752,-0.274,-0.2691,-0.2683,-0.2667,-0.2679,-0.2787,-0.2787,-0.2787,-0.2787,0,-0.2149,-0.2219,-0.2283,-0.2387,-0.2415,-0.2449,-0.255,-0.2591,-0.268,-0.2742,-0.2762,-0.2843,-0.2858,-0.2867,-0.2861,-0.2826,-0.2773,-0.2789,-0.2728,-0.2709,-0.2656,-0.2673,-0.2649,-0.2574,-0.2748,-0.2747,-0.2747,0,-0.2131,-0.2157,-0.2258,-0.2279,-0.2319,-0.2385,-0.2425,-0.2544,-0.2592,-0.2731,-0.2748,-0.2812,-0.2839,-0.2844,-0.2815,-0.2789,-0.275,-0.2707,-0.2669,-0.2659,-0.267,-0.2636,-0.2571,-0.2615,-0.2613,-0.2612,-0.2611,0,-0.2075,-0.2103,-0.2147,-0.2196,-0.2235,-0.2296,-0.2365,-0.2406,-0.2545,-0.2616,-0.27,-0.2744,-0.279,-0.2771,-0.2759,-0.2712,-0.2658,-0.2679,-0.2689,-0.2593,-0.2539,-0.2457,-0.2597,-0.26,-0.2601,-0.2602,-0.2602,-0.2603,-0.2003,-0.2009,-0.2055,-0.2093,-0.2139,-0.218,-0.2186,-0.2288,-0.2363,-0.2468,-0.2589,-0.268,-0.2732,-0.2718,-0.2673,-0.2604,-0.2579,-0.2537,-0.2565,-0.2536,-0.2445,-0.256,-0.2536,-0.2537,-0.2537,-0.2538,-0.2538,0,-0.1909,-0.1923,-0.1949,-0.1988,-0.1988,-0.2056,-0.212,-0.2116,-0.2163,-0.2338,-0.2426,-0.2632,-0.2625,-0.2663,-0.2634,-0.2538,-0.2429,-0.2465,-0.2415,-0.2355,-0.248,-0.2456,-0.239,-0.239,-0.239,-0.239,-0.239,-0.239,-0.1857,-0.1841,-0.1861,-0.1824,-0.1841,-0.1804,-0.1812,-0.1838,-0.1932,-0.2098,-0.2304,-0.2514,-0.2591,-0.2783,-0.268,-0.2551,-0.2444,-0.237,-0.2345,-0.2474,-0.2483,-0.2492,-0.2472,-0.241,-0.241,-0.2137,-0.2136,-0.2135]},{"header":{"parameterUnit":"m.s-1","parameterCategory":2,"la1":30.2991,"la2":30.254,"lo1":-89.0895,"lo2":-89.0444,"dy":0.0017,"dx":0.0017,"nx":28,"ny":28,"refTime":"2025-12-04T09:00:00:Z","depth":"0","parameterNumber":3,"parameterNumberName":"V-component_of_CURRENTS"},"data":[0,0,0,0,0,0,0,0,0,0,0,0,0,0,0,0,0,0,0,0,0,0,0,0,0,0,0,0,0,0,0,0,0,0,0,0,0,0,0,0,0,0,0,0,0,0,0,0,0,0,0,0,0,0,0,0,0,0,-0.0207,-0.0206,0,-0.0106,-0.0105,-0.0103,-0.004,-0.004,-0.0039,-0.0039,0.0081,0.0083,0.0086,0,0,0,0,0,0,0,0,0,0,0,0,0,-0.0289,-0.0288,-0.0207,-0.0206,-0.0205,-0.0106,-0.0105,-0.0103,-0.004,-0.004,-0.0039,-0.0039,0.008,0.0083,0.0087,0,0,0,0,0,0,0,0,0,0,0,0,0,-0.0226,-0.0287,-0.0207,-0.0162,-0.0157,-0.0106,-0.0104,-0.0103,-0.004,-0.0039,-0.0039,-0.0039,0.0079,0.0083,0.0087,0.0106,0,0,0.0101,0.0102,0,0,0,0,0,0,0,0,-0.023,-0.0223,-0.017,-0.0165,-0.0159,-0.0086,-0.0089,-0.0032,-0.004,-0.0083,-0.0039,-0.0038,0.0026,0.0035,0.0054,0.0111,0.0116,0.0101,0.0104,0.0105,0.0107,0,0,0,0,0,0,0,-0.0234,-0.0227,-0.0166,-0.0168,-0.0162,-0.0127,-0.0118,-0.0078,-0.0031,-0.008,-0.0075,-0.0065,0.0029,0.0049,0.0057,0.0118,0.0101,0.0105,0.0107,0.0109,0.0216,0.0216,0,0,0,0,0,0,-0.0252,-0.0231,-0.0169,-0.0163,-0.0195,-0.0126,-0.0116,-0.0109,-0.0032,-0.002,-0.0066,-0.0063,0.0042,0.0052,0.0061,0.0094,0.0105,0.011,0.0112,0.0216,0.0216,0.0216,0,0,0,0,0,0,-0.0254,-0.0247,-0.0173,-0.0195,-0.0184,-0.0126,-0.0118,-0.0107,-0.0087,-0.0022,-0.0009,-0.0056,0.0042,0.0055,0.01,0.0099,0.0111,0.0115,0.0215,0.0216,0.0216,0.0155,0,0,0,0,0,0,-0.0257,-0.0249,-0.0252,-0.0197,-0.0183,-0.0151,-0.0118,-0.0106,-0.0082,-0.0077,-0.001,0.0002,0.0044,0.0093,0.0104,0.0105,0.0119,0.0215,0.0215,0.0216,0.0157,0.0153,0.015,0,0,0,0,0,-0.026,-0.0268,-0.0253,-0.0245,-0.0188,-0.0152,-0.0142,-0.0098,-0.0082,-0.0077,-0.0027,0.0,0.0103,0.0097,0.011,0.0112,0.0215,0.0215,0.0216,0.0158,0.0154,0.015,0,0,0,0,0,0,-0.0306,-0.0261,-0.0243,-0.0237,-0.0201,-0.0142,-0.0134,-0.0104,-0.0061,-0.0056,0.0005,0.002,0.0057,0.0094,0.0085,0.0144,0.0163,0.0166,0.0115,0.0111,0.0108,0.0091,0.0123,0,0,0,0,0,-0.0319,-0.0313,-0.0263,-0.0259,-0.0244,-0.0191,-0.0171,-0.0142,-0.0096,-0.0076,-0.0028,0.0024,0.007,0.0096,0.0139,0.0173,0.0209,0.0183,0.0179,0.0176,0.0172,0.0228,0.0229,0.0218,0.0218,0.0218,0,0,-0.0336,-0.031,-0.0307,-0.0268,-0.0237,-0.0222,-0.0178,-0.0154,-0.0137,-0.007,-0.0036,0.0012,0.0075,0.0113,0.0133,0.0144,0.0199,0.0177,0.0174,0.0171,0.0229,0.023,0.0231,0.0218,0.0218,0.0218,0,0,-0.0371,-0.0346,-0.0353,-0.0327,-0.0287,-0.0251,-0.0248,-0.0192,-0.0163,-0.0124,-0.0071,-0.0022,0.0044,0.0093,0.0126,0.0131,0.0176,0.0142,0.0117,0.017,0.0172,0.0173,0.0215,0.0221,0.0144,0.0144,0.0144,0,-0.0394,-0.0395,-0.035,-0.0348,-0.0333,-0.0269,-0.0273,-0.0231,-0.0167,-0.0143,-0.0123,-0.0015,0.0036,0.0094,0.0096,0.0123,0.0156,0.0124,0.0165,0.0167,0.017,0.0213,0.022,0.0141,0.0141,0.0141,0.0142,0,-0.043,-0.043,-0.0433,-0.0409,-0.0386,-0.038,-0.032,-0.0291,-0.0249,-0.0201,-0.0139,-0.0062,0.0003,0.0027,0.0065,0.011,0.0127,0.015,0.017,0.0167,0.0213,0.0222,0.0137,0.0138,0.0139,0.0139,0,0,-0.0479,-0.0464,-0.0464,-0.0472,-0.0421,-0.0409,-0.0377,-0.0329,-0.0309,-0.0235,-0.02,-0.0111,-0.0064,-0.0024,0.0035,0.0086,0.0133,0.0119,0.0123,0.0152,0.0244,0.0294,0.0309,0.0161,0.0162,0.0163,0.0266,0,-0.0522,-0.0551,-0.0518,-0.0537,-0.0549,-0.0482,-0.0459,-0.0404,-0.0343,-0.0291,-0.0194,-0.014,-0.0083,-0.0054,0.0008,0.0105,0.0153,0.0102,0.025,0.0255,0.0293,0.032,0.0361,0.046,0.0275,0.0276,0.0277,0,-0.0563,-0.0581,-0.0617,-0.0613,-0.0609,-0.0602,-0.0556,-0.0525,-0.0426,-0.0378,-0.0295,-0.0215,-0.0116,-0.0078,0.0088,0.0052,0.0136,0.0209,0.0216,0.029,0.0322,0.0436,0.0483,0.0689,0.0291,0.029,0.0289,0,-0.0632,-0.0646,-0.0683,-0.0682,-0.0662,-0.0657,-0.0635,-0.0555,-0.0531,-0.0431,-0.0399,-0.0265,-0.0199,-0.0068,0.0099,0.0091,0.0276,0.0287,0.041,0.0414,0.0493,0.0503,0.0751,0.0388,0.0388,0.0388,0.0388,0,-0.0692,-0.072,-0.0723,-0.0746,-0.0781,-0.0732,-0.0739,-0.0689,-0.0619,-0.0592,-0.0453,-0.0398,-0.0195,-0.0055,0.0085,0.0287,0.0273,0.0414,0.0451,0.0473,0.0479,0.0697,0.0769,0.0392,0.0391,0.039,0.0389,0,-0.0761,-0.0761,-0.0809,-0.0815,-0.0818,-0.0842,-0.0823,-0.0823,-0.0739,-0.0698,-0.0669,-0.0493,-0.0299,-0.0088,0.0136,0.027,0.0572,0.0519,0.0528,0.0566,0.0866,0.0931,0.1173,0.126,0.0672,0.0674,0.0675,0,-0.0798,-0.0833,-0.0876,-0.0911,-0.0918,-0.0942,-0.0956,-0.0894,-0.0884,-0.0753,-0.0738,-0.0542,-0.0388,-0.0022,0.0257,0.0533,0.0664,0.0718,0.0715,0.0906,0.1006,0.1038,0.1094,0.0793,0.0796,0.0798,0.0799,0,-0.0872,-0.0886,-0.0928,-0.1011,-0.1048,-0.1084,-0.1092,-0.1102,-0.1014,-0.0957,-0.0839,-0.0703,-0.0315,0.0041,0.0421,0.0586,0.0869,0.0767,0.0977,0.1137,0.1177,0.127,0.0691,0.0817,0.0816,0.0814,0.0813,0.0813,-0.0918,-0.0972,-0.1033,-0.1109,-0.1161,-0.1211,-0.1242,-0.1228,-0.1207,-0.1101,-0.0941,-0.0711,-0.0145,0.041,0.0621,0.1099,0.103,0.1234,0.1298,0.1314,0.1405,0.086,0.102,0.102,0.1019,0.1019,0.1018,0,-0.0976,-0.104,-0.1125,-0.1211,-0.1291,-0.1288,-0.1324,-0.1337,-0.1322,-0.1174,-0.1029,-0.0428,0.0143,0.067,0.1359,0.1623,0.1655,0.1753,0.1827,0.1858,0.1405,0.142,0.1662,0.1661,0.1661,0.1661,0.1661,0.166,-0.1009,-0.1109,-0.1163,-0.1309,-0.1368,-0.1451,-0.1475,-0.1468,-0.1386,-0.1145,-0.0833,-0.0574,0.0264,0.1443,0.2108,0.2159,0.2356,0.2337,0.2434,0.2154,0.2111,0.207,0.2106,0.2487,0.2488,0.2864,0.2868,0.2871]}],[{"header":{"parameterUnit":"m.s-1","parameterCategory":2,"la1":30.2991,"la2":30.254,"lo1":-89.0895,"lo2":-89.0444,"dy":0.0017,"dx":0.0017,"nx":28,"ny":28,"refTime":"2025-12-04T09:00:00:Z","depth":"2","parameterNumber":2,"parameterNumberName":"U-component_of_CURRENTS"},"data":[0,0,0,0,0,0,0,0,0,0,0,0,0,0,0,0,0,0,0,0,0,0,0,0,0,0,0,0,0,0,0,0,0,0,0,0,0,0,0,0,0,0,0,0,0,0,0,0,0,0,0,0,0,0,0,0,0,0,-0.2216,-0.2216,0,-0.2246,-0.2246,-0.2247,-0.2232,-0.2231,-0.2231,-0.223,-0.22,-0.22,-0.2199,0,0,0,0,0,0,0,0,0,0,0,0,0,-0.2129,-0.2131,-0.2216,-0.2216,-0.2217,-0.2246,-0.2246,-0.2247,-0.2232,-0.2231,-0.2231,-0.223,-0.22,-0.22,-0.2199,0,0,0,0,0,0,0,0,0,0,0,0,0,-0.2161,-0.2131,-0.2216,-0.2215,-0.2216,-0.2246,-0.2246,-0.2247,-0.2232,-0.2231,-0.223,-0.223,-0.22,-0.22,-0.2199,-0.2212,0,0,-0.2198,-0.2198,0,0,0,0,0,0,0,0,-0.2159,-0.2164,-0.2215,-0.2215,-0.2216,-0.2237,-0.2205,-0.2233,-0.2232,-0.2223,-0.223,-0.2229,-0.2209,-0.2208,-0.2212,-0.2211,-0.2209,-0.2198,-0.2198,-0.2197,-0.2197,0,0,0,0,0,0,0,-0.2157,-0.2163,-0.2225,-0.2216,-0.2216,-0.2209,-0.2212,-0.221,-0.2217,-0.2224,-0.2223,-0.2232,-0.2209,-0.2213,-0.2211,-0.2209,-0.2198,-0.2197,-0.2197,-0.2197,-0.2233,-0.2234,0,0,0,0,0,0,-0.2161,-0.2161,-0.2224,-0.2226,-0.2188,-0.2211,-0.2215,-0.2229,-0.2218,-0.2217,-0.2232,-0.2231,-0.2214,-0.2212,-0.221,-0.224,-0.2197,-0.2197,-0.2197,-0.2232,-0.2233,-0.2235,0,0,0,0,0,0,-0.2159,-0.2167,-0.2223,-0.2196,-0.2203,-0.2214,-0.2229,-0.223,-0.2235,-0.2226,-0.2223,-0.2237,-0.2213,-0.2211,-0.2217,-0.2238,-0.2197,-0.2196,-0.223,-0.2232,-0.2234,-0.229,0,0,0,0,0,0,-0.2157,-0.2166,-0.2173,-0.2196,-0.2205,-0.2245,-0.223,-0.2231,-0.2243,-0.2241,-0.2229,-0.2226,-0.2212,-0.2218,-0.2217,-0.2237,-0.2196,-0.2229,-0.2231,-0.2233,-0.2286,-0.2293,-0.2299,0,0,0,0,0,-0.2154,-0.2169,-0.2173,-0.2181,-0.2215,-0.2246,-0.225,-0.2252,-0.2244,-0.2252,-0.2247,-0.2226,-0.2232,-0.2219,-0.2217,-0.2237,-0.2228,-0.223,-0.2233,-0.2283,-0.2292,-0.2299,0,0,0,0,0,0,-0.2133,-0.217,-0.2175,-0.22,-0.2223,-0.2245,-0.2251,-0.2257,-0.2261,-0.2255,-0.224,-0.2237,-0.2251,-0.2239,-0.2225,-0.2255,-0.2227,-0.223,-0.2266,-0.2274,-0.228,-0.2284,-0.2195,0,0,0,0,0,-0.2134,-0.2152,-0.2188,-0.2205,-0.2219,-0.2236,-0.2247,-0.2255,-0.2265,-0.2265,-0.226,-0.2256,-0.2263,-0.2263,-0.2263,-0.2278,-0.227,-0.2291,-0.2298,-0.2303,-0.2306,-0.2318,-0.2326,-0.2244,-0.2244,-0.2244,0,0,-0.2128,-0.2152,-0.216,-0.2201,-0.2216,-0.2249,-0.2239,-0.2263,-0.2289,-0.2261,-0.2283,-0.2277,-0.2273,-0.2292,-0.2297,-0.2283,-0.2324,-0.2307,-0.2312,-0.2312,-0.2322,-0.233,-0.2337,-0.2246,-0.2245,-0.2245,0,0,-0.2132,-0.215,-0.217,-0.2199,-0.2234,-0.2253,-0.2263,-0.2292,-0.2301,-0.2326,-0.2316,-0.2327,-0.2329,-0.2338,-0.2341,-0.2385,-0.2358,-0.2381,-0.2416,-0.2428,-0.2435,-0.244,-0.2446,-0.2452,-0.2384,-0.2384,-0.2384,0,-0.2123,-0.216,-0.2179,-0.2214,-0.2241,-0.2259,-0.2294,-0.2314,-0.2341,-0.2356,-0.2337,-0.2364,-0.2355,-0.2393,-0.2405,-0.24,-0.2395,-0.2386,-0.2436,-0.2442,-0.2446,-0.245,-0.2456,-0.2387,-0.2387,-0.2387,-0.2386,0,-0.2148,-0.2183,-0.2198,-0.225,-0.2281,-0.2313,-0.2354,-0.2378,-0.2388,-0.2407,-0.2439,-0.2434,-0.2447,-0.2452,-0.2438,-0.2477,-0.2459,-0.2442,-0.2415,-0.2458,-0.246,-0.2465,-0.2392,-0.239,-0.239,-0.2389,0,0,-0.2115,-0.22,-0.2204,-0.2241,-0.2305,-0.2334,-0.2385,-0.2438,-0.247,-0.2487,-0.2525,-0.2539,-0.2529,-0.2532,-0.2523,-0.2533,-0.2563,-0.2501,-0.25,-0.2504,-0.2583,-0.2551,-0.2552,-0.2551,-0.2552,-0.2552,-0.2572,0,-0.2127,-0.2196,-0.2238,-0.2305,-0.2346,-0.2392,-0.2441,-0.2489,-0.2518,-0.2557,-0.2568,-0.2592,-0.2563,-0.2567,-0.2576,-0.2565,-0.2577,-0.2559,-0.2542,-0.2542,-0.2506,-0.2558,-0.2326,-0.2322,-0.2576,-0.2577,-0.2577,0,-0.2135,-0.2185,-0.2252,-0.2345,-0.2366,-0.2405,-0.2483,-0.253,-0.2594,-0.2616,-0.2645,-0.2648,-0.2674,-0.2637,-0.2646,-0.2632,-0.2612,-0.2602,-0.2602,-0.2554,-0.2519,-0.2319,-0.2321,-0.2585,-0.2584,-0.2584,-0.2583,0,-0.2098,-0.2193,-0.2246,-0.2278,-0.2382,-0.2414,-0.2463,-0.2536,-0.2578,-0.2646,-0.2672,-0.2706,-0.2712,-0.2706,-0.2678,-0.2661,-0.2681,-0.2656,-0.2615,-0.2612,-0.2404,-0.2381,-0.2668,-0.2668,-0.2668,-0.2668,-0.2668,0,-0.2097,-0.2138,-0.2229,-0.2259,-0.2316,-0.2395,-0.2453,-0.251,-0.2588,-0.2634,-0.2685,-0.2715,-0.2725,-0.2734,-0.2707,-0.2677,-0.2704,-0.2633,-0.2621,-0.2418,-0.2398,-0.2612,-0.2605,-0.2669,-0.2669,-0.2669,-0.2669,0,-0.2048,-0.2113,-0.2173,-0.2272,-0.23,-0.2333,-0.2431,-0.247,-0.2558,-0.2619,-0.264,-0.2719,-0.2735,-0.2745,-0.2741,-0.2706,-0.2689,-0.267,-0.2435,-0.2396,-0.2605,-0.2601,-0.2633,-0.2632,-0.2631,-0.2631,-0.263,0,-0.203,-0.2055,-0.215,-0.2171,-0.221,-0.2273,-0.2311,-0.2427,-0.2472,-0.2608,-0.2625,-0.2689,-0.2711,-0.2717,-0.2656,-0.2624,-0.2677,-0.2407,-0.2344,-0.2619,-0.2605,-0.2602,-0.2599,-0.2085,-0.208,-0.2076,-0.2072,0,-0.1976,-0.2004,-0.2044,-0.2091,-0.2129,-0.2186,-0.2252,-0.2291,-0.2426,-0.2491,-0.2572,-0.2611,-0.2627,-0.25,-0.2475,-0.2414,-0.2398,-0.2328,-0.2662,-0.2146,-0.2108,-0.2092,-0.2106,-0.2036,-0.204,-0.2043,-0.2045,-0.2046,-0.1908,-0.1913,-0.1955,-0.1992,-0.2035,-0.2072,-0.2077,-0.2159,-0.2225,-0.228,-0.2415,-0.2397,-0.2386,-0.2239,-0.2151,-0.2069,-0.2228,-0.2109,-0.2118,-0.2132,-0.2083,-0.2047,-0.1954,-0.1957,-0.1959,-0.1962,-0.1964,0,-0.181,-0.1829,-0.1853,-0.1888,-0.1878,-0.1953,-0.2012,-0.1972,-0.1991,-0.2071,-0.2114,-0.1928,-0.1879,-0.1879,-0.1707,-0.1699,-0.1638,-0.1622,-0.1525,-0.1562,-0.1594,-0.1514,-0.1236,-0.1234,-0.1232,-0.123,0,0,-0.1757,-0.1737,-0.1755,-0.1712,-0.1734,-0.1679,-0.1684,-0.1644,-0.1653,-0.16,-0.1598,-0.1756,-0.1822,-0.1524,-0.1458,-0.1326,-0.1422,-0.1254,-0.1833,-0.1753,-0.1783,-0.1867,-0.1786,0,0,0,0,0]},{"header":{"parameterUnit":"m.s-1","parameterCategory":2,"la1":30.2991,"la2":30.254,"lo1":-89.0895,"lo2":-89.0444,"dy":0.0017,"dx":0.0017,"nx":28,"ny":28,"refTime":"2025-12-04T09:00:00:Z","depth":"2","parameterNumber":3,"parameterNumberName":"V-component_of_CURRENTS"},"data":[0,0,0,0,0,0,0,0,0,0,0,0,0,0,0,0,0,0,0,0,0,0,0,0,0,0,0,0,0,0,0,0,0,0,0,0,0,0,0,0,0,0,0,0,0,0,0,0,0,0,0,0,0,0,0,0,0,0,-0.0178,-0.0177,0,-0.0079,-0.0078,-0.0077,-0.0015,-0.0015,-0.0014,-0.0014,0.0102,0.0105,0.0108,0,0,0,0,0,0,0,0,0,0,0,0,0,-0.0259,-0.0258,-0.0178,-0.0177,-0.0176,-0.0079,-0.0078,-0.0076,-0.0015,-0.0015,-0.0014,-0.0014,0.0101,0.0105,0.0108,0,0,0,0,0,0,0,0,0,0,0,0,0,-0.0198,-0.0258,-0.0179,-0.0134,-0.0129,-0.008,-0.0078,-0.0076,-0.0015,-0.0015,-0.0014,-0.0014,0.01,0.0105,0.0109,0.0127,0,0,0.0122,0.0124,0,0,0,0,0,0,0,0,-0.0201,-0.0195,-0.0142,-0.0137,-0.0132,-0.006,-0.0064,-0.0007,-0.0015,-0.0058,-0.0014,-0.0014,0.0049,0.0058,0.0076,0.0133,0.0138,0.0122,0.0125,0.0127,0.0128,0,0,0,0,0,0,0,-0.0206,-0.0198,-0.0138,-0.0141,-0.0135,-0.01,-0.0092,-0.0052,-0.0007,-0.0054,-0.0049,-0.004,0.0052,0.0072,0.0079,0.0139,0.0122,0.0126,0.0129,0.013,0.0234,0.0234,0,0,0,0,0,0,-0.0223,-0.0203,-0.0141,-0.0135,-0.0167,-0.01,-0.009,-0.0083,-0.0007,0.0004,-0.004,-0.0037,0.0064,0.0074,0.0084,0.0115,0.0127,0.0131,0.0133,0.0234,0.0234,0.0234,0,0,0,0,0,0,-0.0225,-0.0219,-0.0145,-0.0167,-0.0156,-0.0099,-0.0091,-0.0081,-0.0061,0.0003,0.0015,-0.0031,0.0065,0.0078,0.0121,0.0119,0.0133,0.0136,0.0234,0.0234,0.0234,0.0173,0,0,0,0,0,0,-0.0228,-0.022,-0.0223,-0.0169,-0.0155,-0.0124,-0.0091,-0.0079,-0.0056,-0.0051,0.0014,0.0026,0.0066,0.0114,0.0125,0.0125,0.014,0.0233,0.0234,0.0234,0.0175,0.0172,0.0169,0,0,0,0,0,-0.0231,-0.0239,-0.0224,-0.0216,-0.016,-0.0125,-0.0115,-0.0072,-0.0056,-0.0052,-0.0003,0.0024,0.0124,0.0118,0.0131,0.0132,0.0233,0.0234,0.0234,0.0177,0.0172,0.0169,0,0,0,0,0,0,-0.0277,-0.0232,-0.0214,-0.0208,-0.0173,-0.0115,-0.0108,-0.0078,-0.0036,-0.0032,0.0028,0.0043,0.0079,0.0115,0.0106,0.0164,0.0182,0.0185,0.0134,0.0131,0.0127,0.0111,0.0143,0,0,0,0,0,-0.0289,-0.0283,-0.0234,-0.023,-0.0216,-0.0163,-0.0144,-0.0116,-0.007,-0.0051,-0.0004,0.0046,0.0091,0.0117,0.0159,0.0191,0.0227,0.0201,0.0197,0.0194,0.019,0.0245,0.0246,0.0236,0.0236,0.0236,0,0,-0.0307,-0.0281,-0.0278,-0.024,-0.0209,-0.0195,-0.0151,-0.0128,-0.0112,-0.0046,-0.0013,0.0034,0.0096,0.0133,0.0152,0.0163,0.0216,0.0195,0.0191,0.0189,0.0245,0.0246,0.0247,0.0236,0.0236,0.0236,0,0,-0.0341,-0.0316,-0.0323,-0.0298,-0.0259,-0.0223,-0.0221,-0.0166,-0.0138,-0.01,-0.0048,-0.0001,0.0064,0.0112,0.0145,0.0149,0.0193,0.0159,0.0133,0.0186,0.0188,0.0189,0.023,0.0236,0.0161,0.0161,0.0161,0,-0.0365,-0.0365,-0.032,-0.0319,-0.0305,-0.0242,-0.0246,-0.0205,-0.0143,-0.0119,-0.01,0.0006,0.0055,0.0112,0.0114,0.0141,0.0173,0.0141,0.0181,0.0183,0.0186,0.0228,0.0235,0.0158,0.0158,0.0159,0.0159,0,-0.04,-0.0401,-0.0403,-0.038,-0.0358,-0.0352,-0.0294,-0.0266,-0.0225,-0.0178,-0.0118,-0.0042,0.0021,0.0045,0.0082,0.0126,0.0143,0.0166,0.0186,0.0183,0.0228,0.0236,0.0154,0.0155,0.0156,0.0156,0,0,-0.0449,-0.0434,-0.0434,-0.0442,-0.0393,-0.0382,-0.0351,-0.0305,-0.0285,-0.0213,-0.018,-0.0093,-0.0046,-0.0007,0.0052,0.0101,0.0147,0.0134,0.0138,0.0166,0.0256,0.0302,0.0316,0.0175,0.0176,0.0177,0.0278,0,-0.0492,-0.0521,-0.0488,-0.0508,-0.052,-0.0455,-0.0433,-0.038,-0.032,-0.027,-0.0174,-0.0122,-0.0066,-0.0037,0.0023,0.0119,0.0167,0.0117,0.0263,0.0267,0.0302,0.0327,0.0264,0.0351,0.0286,0.0287,0.0289,0,-0.0533,-0.0551,-0.0587,-0.0584,-0.058,-0.0574,-0.053,-0.05,-0.0404,-0.0357,-0.0276,-0.0198,-0.0101,-0.0062,0.0101,0.0066,0.0149,0.0222,0.0228,0.0298,0.033,0.0348,0.037,0.0303,0.0302,0.0301,0.03,0,-0.0602,-0.0616,-0.0654,-0.0652,-0.0633,-0.063,-0.0608,-0.0531,-0.0508,-0.041,-0.0379,-0.0247,-0.0183,-0.0054,0.0111,0.0103,0.0285,0.0297,0.0416,0.042,0.0409,0.0411,0.0397,0.0397,0.0396,0.0396,0.0396,0,-0.0662,-0.069,-0.0693,-0.0716,-0.0752,-0.0704,-0.0712,-0.0663,-0.0595,-0.0569,-0.0433,-0.0379,-0.0179,-0.0042,0.0097,0.0294,0.0281,0.0418,0.0455,0.0387,0.0385,0.0377,0.0374,0.04,0.0399,0.0398,0.0398,0,-0.073,-0.073,-0.0779,-0.0785,-0.0789,-0.0813,-0.0795,-0.0795,-0.0714,-0.0674,-0.0646,-0.0473,-0.0284,-0.0076,0.0144,0.0276,0.0455,0.0519,0.0425,0.045,0.0552,0.0544,0.0661,0.0664,0.0666,0.0668,0.067,0,-0.0768,-0.0802,-0.0845,-0.088,-0.0888,-0.0912,-0.0927,-0.0866,-0.0856,-0.0729,-0.0715,-0.0523,-0.0373,-0.0015,0.0239,0.0505,0.0509,0.0602,0.0586,0.0558,0.0582,0.057,0.056,0.0542,0.0542,0.0542,0.0543,0,-0.0841,-0.0855,-0.0897,-0.0979,-0.1016,-0.1053,-0.1061,-0.107,-0.0984,-0.0929,-0.0814,-0.0682,-0.0322,-0.0031,0.0333,0.0478,0.0561,0.0619,0.0625,0.049,0.0455,0.0475,0.0467,0.0545,0.0545,0.0545,0.0545,0.0545,-0.0887,-0.0941,-0.1001,-0.1076,-0.1128,-0.1177,-0.1208,-0.1189,-0.1168,-0.1058,-0.0915,-0.0699,-0.0378,0.0118,0.0381,0.0622,0.0624,0.0677,0.0671,0.0666,0.064,0.0612,0.0726,0.0727,0.0727,0.0728,0.0728,0,-0.0942,-0.1008,-0.1092,-0.1177,-0.1252,-0.1254,-0.1289,-0.1284,-0.1262,-0.1129,-0.0989,-0.0643,-0.0281,0.0055,0.0433,0.068,0.0647,0.0715,0.0617,0.0613,0.061,0.0577,0.0648,0.0649,0.065,0.065,0,0,-0.0974,-0.1071,-0.1124,-0.1265,-0.1326,-0.1398,-0.1421,-0.1384,-0.1302,-0.1173,-0.1011,-0.0744,-0.0316,-0.0058,0.0253,0.0452,0.046,0.0465,0.05,0.034,0.0334,0.0559,0.05,0,0,0,0,0]}],[{"header":{"parameterUnit":"m.s-1","parameterCategory":2,"la1":30.2991,"la2":30.254,"lo1":-89.0895,"lo2":-89.0444,"dy":0.0017,"dx":0.0017,"nx":28,"ny":28,"refTime":"2025-12-04T09:00:00:Z","depth":"4","parameterNumber":2,"parameterNumberName":"U-component_of_CURRENTS"},"data":[0,0,0,0,0,0,0,0,0,0,0,0,0,0,0,0,0,0,0,0,0,0,0,0,0,0,0,0,0,0,0,0,0,0,0,0,0,0,0,0,0,0,0,0,0,0,0,0,0,0,0,0,0,0,0,0,0,0,-0.1452,-0.1452,0,-0.1503,-0.1503,-0.1504,-0.1539,-0.154,-0.154,-0.1541,-0.1573,-0.1573,-0.1574,0,0,0,0,0,0,0,0,0,0,0,0,0,-0.1367,-0.1368,-0.1452,-0.1452,-0.1453,-0.1503,-0.1503,-0.1504,-0.1539,-0.154,-0.154,-0.1541,-0.1573,-0.1573,-0.1574,0,0,0,0,0,0,0,0,0,0,0,0,0,-0.1408,-0.1369,-0.1451,-0.1478,-0.1481,-0.1503,-0.1503,-0.1504,-0.1539,-0.154,-0.1541,-0.1541,-0.1572,-0.1573,-0.1574,-0.1565,0,0,-0.1576,-0.1576,0,0,0,0,0,0,0,0,-0.1406,-0.1411,-0.1473,-0.1476,-0.148,-0.1517,-0.1485,-0.1524,-0.1539,-0.1515,-0.1541,-0.1542,-0.1553,-0.1555,-0.1561,-0.1566,-0.1568,-0.1576,-0.1576,-0.1577,-0.1577,0,0,0,0,0,0,0,-0.1403,-0.1409,-0.147,-0.1474,-0.1478,-0.1482,-0.1488,-0.1493,-0.1528,-0.1517,-0.1521,-0.1529,-0.1554,-0.1561,-0.1562,-0.1568,-0.1576,-0.1576,-0.1577,-0.1577,-0.1647,-0.1648,0,0,0,0,0,0,-0.14,-0.1406,-0.1469,-0.1472,-0.1445,-0.1483,-0.149,-0.1503,-0.1529,-0.1534,-0.1528,-0.153,-0.1559,-0.1561,-0.1563,-0.1631,-0.1577,-0.1577,-0.1578,-0.1645,-0.1647,-0.1649,0,0,0,0,0,0,-0.1398,-0.1406,-0.1466,-0.1441,-0.1449,-0.1484,-0.1498,-0.1504,-0.1537,-0.1537,-0.1542,-0.1559,-0.156,-0.1563,-0.1596,-0.1629,-0.1577,-0.1578,-0.1644,-0.1646,-0.1648,-0.1716,0,0,0,0,0,0,-0.1396,-0.1405,-0.1424,-0.1441,-0.1451,-0.1498,-0.1498,-0.1504,-0.154,-0.1544,-0.1565,-0.1567,-0.156,-0.1595,-0.1597,-0.1629,-0.1579,-0.1642,-0.1645,-0.1647,-0.1712,-0.172,-0.1727,0,0,0,0,0,-0.1393,-0.1413,-0.1424,-0.1433,-0.1473,-0.1499,-0.1505,-0.1529,-0.1542,-0.1561,-0.158,-0.1568,-0.1614,-0.1597,-0.1599,-0.1632,-0.164,-0.1644,-0.1647,-0.1708,-0.1718,-0.1727,0,0,0,0,0,0,-0.1387,-0.1419,-0.1432,-0.1462,-0.1488,-0.1506,-0.1528,-0.1545,-0.1575,-0.1586,-0.1585,-0.1589,-0.163,-0.1621,-0.1603,-0.166,-0.1626,-0.1629,-0.1672,-0.1681,-0.1689,-0.1691,-0.1579,0,0,0,0,0,-0.1394,-0.1419,-0.1446,-0.1473,-0.1488,-0.1513,-0.1532,-0.1551,-0.1574,-0.1589,-0.1605,-0.1622,-0.1639,-0.1654,-0.1663,-0.1694,-0.1684,-0.1717,-0.1724,-0.1731,-0.1734,-0.1751,-0.176,-0.1659,-0.1659,-0.1659,0,0,-0.1399,-0.142,-0.1436,-0.1474,-0.1495,-0.1526,-0.1527,-0.1564,-0.1598,-0.1586,-0.1642,-0.165,-0.1653,-0.169,-0.1708,-0.1692,-0.1756,-0.1735,-0.1741,-0.174,-0.1755,-0.1765,-0.1774,-0.1662,-0.1661,-0.1661,0,0,-0.1411,-0.1442,-0.1464,-0.1491,-0.1532,-0.155,-0.1568,-0.1605,-0.1633,-0.1679,-0.1682,-0.1714,-0.174,-0.1753,-0.176,-0.1815,-0.1794,-0.1821,-0.1865,-0.1882,-0.189,-0.1897,-0.19,-0.1907,-0.1827,-0.1827,-0.1827,0,-0.1418,-0.1451,-0.1475,-0.1505,-0.1535,-0.1566,-0.16,-0.1632,-0.1679,-0.1706,-0.1707,-0.1765,-0.177,-0.1815,-0.1837,-0.1834,-0.1833,-0.183,-0.1892,-0.1899,-0.1905,-0.1906,-0.1912,-0.1831,-0.183,-0.183,-0.183,0,-0.1438,-0.1479,-0.1496,-0.1546,-0.1581,-0.1617,-0.1662,-0.1706,-0.1743,-0.1771,-0.1833,-0.1845,-0.1877,-0.1888,-0.188,-0.1932,-0.1914,-0.1898,-0.1867,-0.1919,-0.1917,-0.1923,-0.1836,-0.1835,-0.1834,-0.1833,0,0,-0.1414,-0.1495,-0.1504,-0.1541,-0.1609,-0.1637,-0.1704,-0.1765,-0.1814,-0.1861,-0.1918,-0.1956,-0.1965,-0.1974,-0.1974,-0.1993,-0.2037,-0.197,-0.1969,-0.197,-0.2069,-0.1932,-0.1925,-0.2033,-0.2034,-0.2035,-0.2051,0,-0.1425,-0.1485,-0.1528,-0.1598,-0.1634,-0.1695,-0.1753,-0.1817,-0.1869,-0.1931,-0.1963,-0.2012,-0.1997,-0.202,-0.2039,-0.2036,-0.2055,-0.2034,-0.202,-0.2019,-0.189,-0.1928,-0.204,-0.2055,-0.2056,-0.2057,-0.2057,0,-0.1423,-0.1468,-0.1534,-0.1631,-0.1654,-0.1706,-0.1805,-0.1862,-0.1952,-0.1994,-0.2049,-0.2072,-0.2119,-0.2094,-0.2121,-0.2109,-0.2098,-0.2091,-0.2091,-0.1941,-0.1893,-0.1991,-0.2067,-0.2066,-0.2066,-0.2065,-0.2064,0,-0.1376,-0.1472,-0.1528,-0.156,-0.167,-0.1723,-0.1785,-0.1881,-0.1933,-0.2035,-0.2075,-0.2134,-0.2162,-0.2169,-0.2153,-0.2146,-0.2167,-0.2151,-0.202,-0.2011,-0.2099,-0.2091,-0.2172,-0.2172,-0.2172,-0.2172,-0.2172,0,-0.1355,-0.1403,-0.1516,-0.1546,-0.162,-0.1708,-0.1792,-0.1864,-0.1964,-0.2014,-0.2099,-0.2129,-0.2182,-0.2195,-0.2178,-0.2105,-0.2186,-0.2029,-0.2006,-0.2127,-0.2123,-0.2103,-0.2094,-0.2172,-0.2172,-0.2172,-0.2172,0,-0.1286,-0.1364,-0.1432,-0.1556,-0.1599,-0.1649,-0.1781,-0.1829,-0.1942,-0.2008,-0.2042,-0.2136,-0.2147,-0.2175,-0.2183,-0.2114,-0.2075,-0.2032,-0.2161,-0.2145,-0.1906,-0.1901,-0.1889,-0.1884,-0.188,-0.1877,-0.1874,0,-0.1254,-0.1282,-0.1413,-0.145,-0.1509,-0.1603,-0.1657,-0.1794,-0.1837,-0.1982,-0.1989,-0.2061,-0.21,-0.2003,-0.2049,-0.2012,-0.1986,-0.1959,-0.1932,-0.1898,-0.1878,-0.1879,-0.188,-0.1868,-0.1867,-0.1866,-0.1865,0,-0.118,-0.1235,-0.1286,-0.1361,-0.1427,-0.1497,-0.1586,-0.1609,-0.1751,-0.1873,-0.1885,-0.1897,-0.1908,-0.1906,-0.1891,-0.1864,-0.1973,-0.1918,-0.1926,-0.1899,-0.1873,-0.1857,-0.1862,-0.1851,-0.1853,-0.1854,-0.1855,0,-0.1117,-0.1127,-0.1195,-0.1249,-0.1326,-0.1358,-0.1431,-0.1482,-0.1548,-0.171,-0.1706,-0.1788,-0.1881,-0.1828,-0.1813,-0.1777,-0.1749,-0.169,-0.171,-0.1725,-0.1663,-0.1605,-0.148,0,0,0,0,0,-0.1042,-0.1037,-0.1077,-0.1128,-0.1197,-0.1244,-0.1362,-0.1438,-0.1578,-0.1538,-0.1621,-0.1625,-0.1621,-0.1665,-0.1591,-0.1734,-0.1752,-0.1641,-0.1693,-0.1775,-0.1791,-0.1732,0,0,0,0,0,0,-0.099,-0.1015,-0.103,-0.1009,-0.1019,-0.1084,-0.1154,-0.1256,-0.125,-0.1397,-0.1398,-0.1513,-0.1525,-0.1624,-0.1549,-0.1562,-0.156,-0.17,-0.1696,-0.1766,-0.178,-0.1793,-0.1738,0,0,0,0,0]},{"header":{"parameterUnit":"m.s-1","parameterCategory":2,"la1":30.2991,"la2":30.254,"lo1":-89.0895,"lo2":-89.0444,"dy":0.0017,"dx":0.0017,"nx":28,"ny":28,"refTime":"2025-12-04T09:00:00:Z","depth":"4","parameterNumber":3,"parameterNumberName":"V-component_of_CURRENTS"},"data":[0,0,0,0,0,0,0,0,0,0,0,0,0,0,0,0,0,0,0,0,0,0,0,0,0,0,0,0,0,0,0,0,0,0,0,0,0,0,0,0,0,0,0,0,0,0,0,0,0,0,0,0,0,0,0,0,0,0,-0.0075,-0.0074,0,-0.0007,-0.0007,-0.0006,0.0038,0.0039,0.0039,0.0039,0.0127,0.013,0.0132,0,0,0,0,0,0,0,0,0,0,0,0,0,-0.0127,-0.0127,-0.0075,-0.0074,-0.0073,-0.0008,-0.0007,-0.0006,0.0038,0.0039,0.0039,0.0039,0.0127,0.0129,0.0132,0,0,0,0,0,0,0,0,0,0,0,0,0,-0.0086,-0.0127,-0.0075,-0.0044,-0.0041,-0.0008,-0.0006,-0.0005,0.0038,0.0039,0.0039,0.0039,0.0126,0.0129,0.0132,0.0146,0,0,0.0142,0.0144,0,0,0,0,0,0,0,0,-0.0088,-0.0084,-0.0049,-0.0046,-0.0042,0.0007,0.0007,0.0046,0.0038,0.0009,0.0039,0.0039,0.0088,0.0095,0.0108,0.015,0.0154,0.0143,0.0144,0.0146,0.0147,0,0,0,0,0,0,0,-0.0091,-0.0086,-0.0047,-0.0049,-0.0044,-0.0021,-0.0015,0.0015,0.0047,0.0012,0.0015,0.0021,0.009,0.0104,0.011,0.0155,0.0142,0.0145,0.0147,0.0149,0.0227,0.0227,0,0,0,0,0,0,-0.0104,-0.0089,-0.0049,-0.0045,-0.0066,-0.002,-0.0013,-0.0009,0.0047,0.0055,0.0021,0.0023,0.0099,0.0106,0.0113,0.0133,0.0146,0.0149,0.0151,0.0227,0.0227,0.0227,0,0,0,0,0,0,-0.0105,-0.0101,-0.0052,-0.0066,-0.0059,-0.002,-0.0015,-0.0008,0.0005,0.0053,0.0062,0.0026,0.0099,0.0109,0.0141,0.0137,0.015,0.0153,0.0226,0.0227,0.0227,0.0173,0,0,0,0,0,0,-0.0107,-0.0102,-0.0106,-0.0067,-0.0058,-0.004,-0.0015,-0.0006,0.0008,0.0012,0.006,0.0069,0.01,0.0136,0.0144,0.0142,0.0156,0.0226,0.0227,0.0227,0.0175,0.0172,0.0169,0,0,0,0,0,-0.0109,-0.0116,-0.0106,-0.0101,-0.0064,-0.004,-0.0034,-0.0004,0.0008,0.001,0.0047,0.0067,0.0143,0.0138,0.0148,0.0147,0.0226,0.0226,0.0227,0.0176,0.0172,0.0169,0,0,0,0,0,0,-0.0141,-0.0111,-0.01,-0.0097,-0.0074,-0.0033,-0.003,-0.0009,0.0021,0.0024,0.007,0.0082,0.0107,0.0136,0.0129,0.0171,0.0188,0.019,0.0146,0.0142,0.0139,0.0124,0.0159,0,0,0,0,0,-0.0151,-0.0149,-0.0115,-0.0115,-0.0106,-0.007,-0.0057,-0.0037,-0.0005,0.0009,0.0044,0.0083,0.0116,0.0135,0.0167,0.019,0.022,0.0197,0.0193,0.0191,0.0185,0.0233,0.0234,0.0228,0.0228,0.0228,0,0,-0.0164,-0.0147,-0.0147,-0.0122,-0.0102,-0.0096,-0.0061,-0.0048,-0.004,0.0014,0.0033,0.0071,0.0119,0.0145,0.0159,0.0169,0.0207,0.0191,0.0188,0.0185,0.0234,0.0234,0.0235,0.0228,0.0228,0.0228,0,0,-0.0191,-0.0175,-0.0183,-0.0168,-0.0143,-0.012,-0.0119,-0.0081,-0.0062,-0.0037,0.0004,0.004,0.0088,0.0125,0.015,0.015,0.0187,0.0159,0.0134,0.018,0.0181,0.0182,0.0213,0.0217,0.016,0.016,0.016,0,-0.0209,-0.0214,-0.0182,-0.0185,-0.018,-0.0135,-0.0144,-0.0116,-0.0072,-0.0057,-0.004,0.0039,0.0079,0.0119,0.012,0.0142,0.017,0.0141,0.0175,0.0177,0.0179,0.0211,0.0216,0.0157,0.0158,0.0158,0.0158,0,-0.0238,-0.0245,-0.0249,-0.0239,-0.0228,-0.0228,-0.019,-0.0173,-0.0144,-0.0111,-0.0069,-0.0007,0.004,0.006,0.0091,0.0125,0.0139,0.0162,0.018,0.0176,0.021,0.0217,0.0154,0.0154,0.0155,0.0156,0,0,-0.027,-0.0272,-0.0274,-0.0287,-0.0259,-0.0256,-0.0241,-0.0214,-0.0205,-0.0151,-0.0131,-0.0063,-0.0024,0.0007,0.0056,0.01,0.0137,0.0131,0.0135,0.0154,0.0229,0.0215,0.0222,0.0166,0.0167,0.0168,0.0245,0,-0.0305,-0.0338,-0.032,-0.0348,-0.0363,-0.0323,-0.0315,-0.0282,-0.0241,-0.0209,-0.0132,-0.0094,-0.0045,-0.0022,0.0031,0.0114,0.0153,0.0113,0.0238,0.0241,0.0223,0.0229,0.0171,0.025,0.0251,0.0252,0.0253,0,-0.0336,-0.0358,-0.0398,-0.0413,-0.0415,-0.0421,-0.0403,-0.0388,-0.0323,-0.0289,-0.0228,-0.0165,-0.0087,-0.0049,0.0089,0.0061,0.0134,0.0198,0.0203,0.0213,0.0239,0.0259,0.0266,0.0265,0.0264,0.0263,0.0262,0,-0.038,-0.0409,-0.045,-0.0455,-0.046,-0.0469,-0.0464,-0.0417,-0.0407,-0.0338,-0.0317,-0.0212,-0.016,-0.0048,0.009,0.009,0.0238,0.0257,0.0311,0.0311,0.0324,0.0322,0.0342,0.0342,0.0341,0.0341,0.0341,0,-0.042,-0.0453,-0.0481,-0.0504,-0.055,-0.0527,-0.0551,-0.0522,-0.0483,-0.0468,-0.0365,-0.0324,-0.0157,-0.0046,0.0074,0.0214,0.023,0.0304,0.0332,0.0299,0.0293,0.0328,0.0326,0.0344,0.0344,0.0343,0.0342,0,-0.0457,-0.0474,-0.0528,-0.0561,-0.0575,-0.0606,-0.0622,-0.063,-0.0581,-0.0557,-0.0538,-0.0405,-0.0258,-0.0091,0.0096,0.0185,0.0324,0.0366,0.031,0.0333,0.0367,0.0361,0.0428,0.0429,0.0429,0.0429,0.0429,0,-0.0476,-0.051,-0.0579,-0.0619,-0.064,-0.0683,-0.0709,-0.0684,-0.0683,-0.0601,-0.0588,-0.045,-0.0345,-0.0092,0.0082,0.0305,0.0334,0.0397,0.0388,0.0357,0.0377,0.037,0.0364,0.0429,0.0429,0.0429,0.0429,0,-0.0515,-0.0543,-0.0588,-0.0677,-0.0728,-0.0778,-0.0807,-0.0813,-0.0766,-0.073,-0.0624,-0.0476,-0.0313,-0.0104,0.007,0.0231,0.0354,0.0399,0.04,0.0392,0.0359,0.0377,0.0371,0.043,0.043,0.043,0.043,0,-0.0538,-0.0583,-0.0649,-0.0721,-0.0796,-0.0845,-0.0857,-0.0842,-0.0829,-0.0727,-0.0695,-0.0498,-0.038,-0.0143,0.0021,0.0176,0.0211,0.0253,0.0262,0.0263,0.0195,0.0127,0.0148,0,0,0,0,0,-0.0554,-0.0608,-0.0686,-0.0764,-0.084,-0.0879,-0.0908,-0.0901,-0.0859,-0.0796,-0.0741,-0.0582,-0.0321,-0.0202,-0.0051,0.0015,0.023,0.0195,0.0279,0.0433,0.0432,0.038,0,0,0,0,0,0,-0.0568,-0.0643,-0.0687,-0.0785,-0.0843,-0.0916,-0.0938,-0.0909,-0.0861,-0.0796,-0.0658,-0.0562,-0.0311,-0.0412,-0.0054,-0.0005,0.0065,0.0325,0.0328,0.0433,0.0433,0.0432,0.0378,0,0,0,0,0]}]]